Wind_Speed
44 43 42 41 41 41 40 39 36 35 33 32 30 28 26 25 24 23 22 21 20 19 18 17 17 16 16 15 15 14 14 13 13 13 12 12 11 11 10 10 10 10 10 10 10 10 10 10 9
45 44 43 43 42 42 40 39 37 36 35 33 32 30 28 27 25 24 22 22 21 21 20 19 18 18 17 17 17 16 15 15 15 14 14 13 13 12 12 12 11 11 11 11 11 12 12 12 12
45 45 44 44 43 42 40 39 39 37 36 34 33 32 30 29 27 25 24 23 22 22 21 21 20 19 19 19 18 18 17 17 16 16 16 15 15 14 14 13 13 13 13 12 13 13 13 14 14
44 45 45 45 43 42 41 39 39 38 36 35 34 33 32 30 28 27 26 25 24 23 23 22 22 21 21 20 20 20 19 19 18 18 17 17 16 16 16 16 15 15 15 15 14 14 15 15 15
44 44 44 44 44 42 41 40 39 38 37 35 35 33 32 31 30 29 28 27 26 25 24 24 23 23 23 22 22 22 21 21 20 20 20 19 19 18 18 18 18 18 18 18 17 17 16 17 17
43 44 44 43 43 42 41 40 39 38 36 35 35 34 33 32 31 30 29 29 27 27 26 26 26 25 25 25 24 23 23 23 23 22 22 22 22 21 21 21 21 20 20 20 20 20 19 19 19
43 43 43 42 42 41 41 40 38 37 36 35 35 34 33 33 32 31 30 30 29 29 28 27 27 27 27 26 26 26 25 25 25 25 25 25 24 24 23 23 23 23 23 22 22 22 22 22 21
42 42 41 41 41 41 40 40 39 37 36 35 35 34 33 32 32 32 31 31 30 30 30 29 29 29 29 28 28 28 28 27 27 27 27 27 27 26 26 25 25 25 24 25 25 24 24 24 24
39 41 41 40 39 39 39 38 38 37 36 35 34 34 33 32 32 32 32 31 31 31 31 31 30 30 30 29 29 29 29 29 29 29 29 29 29 28 28 28 28 27 27 27 27 27 26 26 27
38 38 39 39 38 37 37 37 37 36 36 35 34 34 33 33 33 33 32 32 31 31 31 31 30 30 30 30 30 30 30 30 29 30 30 30 31 30 30 30 30 30 30 29 29 29 29 29 29
36 36 36 37 37 36 36 36 36 36 35 34 34 34 33 33 33 33 32 32 32 31 32 32 32 32 32 31 32 31 31 31 31 31 31 31 31 32 32 31 32 32 31 31 31 31 31 31 31
35 34 33 34 35 34 34 35 35 36 35 34 34 34 33 33 33 32 33 33 33 33 33 33 33 33 33 33 33 34 33 33 33 33 33 33 33 33 33 33 34 34 34 33 33 33 33 33 33
32 33 32 31 32 33 33 34 34 35 35 34 34 33 33 33 33 33 33 33 34 34 34 35 34 34 34 34 35 35 35 34 34 34 35 35 34 34 35 35 35 35 35 35 35 35 35 35 35
30 32 31 30 31 31 32 33 33 34 34 34 34 33 33 33 33 33 33 34 34 34 34 35 35 35 35 35 35 35 35 35 35 36 36 36 36 35 36 36 36 36 37 37 37 37 38 38 38
28 29 29 29 29 30 31 32 32 33 34 34 33 33 33 34 33 33 33 33 33 34 34 34 35 35 36 36 36 36 37 37 37 38 38 38 38 38 38 38 38 38 38 39 39 39 39 39 40
25 26 27 28 28 29 30 30 32 32 33 34 34 34 33 33 33 33 33 33 33 33 34 34 35 36 36 36 37 37 38 38 39 40 40 40 40 41 41 41 40 40 40 40 41 41 41 41 42
23 25 25 25 26 28 29 29 31 32 32 33 34 34 33 33 33 33 33 33 33 33 33 34 35 36 36 37 38 39 40 40 41 41 41 41 42 42 42 42 42 42 42 43 43 44 43 43 43
20 23 24 24 25 26 28 29 29 30 31 31 32 33 33 33 33 33 33 33 33 33 33 34 35 36 37 38 39 40 41 42 42 42 42 42 42 43 43 44 44 44 43 44 45 45 44 45 45
16 20 22 22 23 24 26 27 28 29 29 29 30 31 32 32 33 33 33 33 34 35 35 35 36 37 37 38 39 40 41 42 43 43 43 43 44 44 44 44 44 45 45 45 45 46 46 46 46
13 16 19 21 21 22 24 25 25 26 27 28 29 30 30 31 32 33 33 33 34 34 35 35 36 36 37 37 38 39 40 41 42 42 43 43 44 45 45 45 45 45 45 46 47 47 47 48 48
11 13 16 18 20 21 22 23 24 24 26 26 27 28 30 31 32 33 33 33 33 33 34 34 35 35 35 36 37 38 39 39 40 41 42 43 43 43 43 43 45 46 46 46 47 48 49 49 49
9 11 13 15 16 18 20 21 22 24 25 26 26 27 29 30 31 32 32 33 33 33 33 33 34 34 34 35 36 36 37 38 38 39 39 40 41 41 41 42 43 44 45 45 46 46 47 48 48
7 8 10 11 13 15 17 19 20 22 23 24 24 25 26 27 28 29 30 30 31 32 33 33 33 33 33 34 35 36 36 37 37 37 37 38 39 39 40 40 41 42 42 43 44 45 45 45 46
6 8 9 11 12 13 15 16 16 18 20 22 23 23 24 25 26 27 28 29 30 31 31 32 33 33 33 33 34 34 35 36 36 37 37 38 38 38 39 40 40 40 41 41 42 42 43 43 44
5 6 8 10 11 12 14 15 15 16 18 19 21 22 23 25 25 26 27 28 28 29 29 29 30 31 32 32 32 33 33 34 35 35 36 37 37 38 38 38 38 39 40 40 41 41 42 42 43
5 6 8 9 10 11 13 14 15 16 17 19 20 21 23 24 24 25 25 26 27 27 28 29 29 30 30 31 31 32 32 33 33 34 35 35 36 36 36 37 37 37 38 39 40 41 41 42 42
5 6 8 10 11 12 13 14 15 16 17 18 20 21 22 22 23 24 25 25 26 27 27 28 29 29 30 30 31 31 31 31 32 32 32 32 33 34 36 36 37 37 37 37 38 40 40 40 40
6 7 8 9 10 11 12 13 14 15 16 17 18 19 20 20 21 22 23 24 25 26 26 27 28 28 29 30 30 31 30 31 31 31 31 32 33 34 34 36 36 37 37 37 38 38 39 40 40
7 8 9 10 10 11 11 11 13 14 15 16 16 17 18 18 18 19 21 22 23 24 25 26 27 28 29 30 30 30 31 30 30 30 30 30 31 32 32 33 34 34 35 35 36 37 37 38 38
8 9 10 11 11 12 12 11 12 12 13 13 14 15 16 17 17 18 19 20 21 23 24 25 27 28 29 29 30 30 30 31 30 30 30 30 30 30 31 32 32 33 33 33 34 35 35 35 36
Wind_Direction
226 224 224 223 223 223 224 223 223 222 221 221 223 225 227 229 231 233 234 234 235 237 239 240 241 243 244 245 247 250 251 253 254 256 257 258 258 257 258 260 262 262 262 261 260 259 258 257 257
224 222 222 223 223 223 223 223 223 223 222 222 223 225 227 229 231 233 234 235 236 238 240 242 244 245 246 247 248 250 251 252 255 257 258 259 259 260 260 261 263 264 265 264 263 261 260 260 260
222 221 222 222 222 222 223 222 223 223 223 224 224 226 227 230 232 233 234 236 237 239 241 243 245 246 247 248 250 251 252 253 254 256 257 258 259 261 261 261 262 263 264 265 264 263 262 261 262
220 220 221 222 222 222 222 222 223 224 225 225 226 228 229 231 233 235 236 238 239 241 243 244 246 248 249 250 251 253 254 255 256 257 257 257 258 260 261 261 261 262 263 265 266 266 265 264 263
219 219 220 221 221 221 222 222 223 225 226 227 228 230 231 232 234 236 238 239 241 243 245 246 248 249 250 251 252 254 255 257 257 258 259 259 260 261 262 262 263 263 263 264 266 267 266 265 265
217 218 220 221 220 220 221 222 223 225 226 227 228 230 232 233 235 237 238 240 242 244 245 247 249 250 252 253 254 255 256 257 259 260 260 261 262 262 263 263 263 264 265 265 264 265 266 266 267
217 216 219 220 220 221 222 222 223 225 226 227 229 231 233 234 236 238 239 241 243 244 246 248 249 251 253 254 256 257 258 259 259 260 260 260 261 262 262 263 263 264 264 265 265 265 266 267 267
214 215 217 220 220 220 221 223 223 225 226 228 229 231 233 235 236 238 240 242 244 246 247 249 250 252 254 255 256 258 259 260 260 260 261 261 261 261 262 262 263 263 263 264 264 264 265 266 267
211 214 215 218 219 220 221 223 224 225 227 228 229 232 234 236 237 239 241 242 244 246 248 249 251 253 254 256 257 258 259 260 261 261 261 261 261 261 262 263 263 263 264 264 265 264 265 266 266
209 213 214 217 218 220 221 223 224 225 227 228 230 232 235 237 238 240 242 244 245 246 248 250 251 252 254 256 257 258 259 260 261 261 261 262 262 262 263 263 264 264 264 264 265 265 265 265 266
209 211 212 216 218 220 221 223 224 226 228 229 231 233 236 238 239 241 243 244 245 246 248 250 252 253 255 256 258 259 259 260 261 261 262 262 262 262 263 263 263 264 264 265 264 265 265 266 266
208 209 212 215 218 219 221 223 224 226 228 229 231 233 236 238 240 242 244 245 246 248 249 251 253 254 256 257 258 260 260 260 260 261 261 262 262 262 262 263 263 264 264 265 265 265 266 267 267
207 208 211 214 217 220 222 224 225 226 228 229 232 234 236 238 241 243 245 247 248 250 251 253 254 255 256 257 259 260 261 261 261 261 262 262 262 263 264 264 264 264 265 265 265 265 265 266 266
205 209 212 215 218 220 223 225 226 227 228 230 233 235 237 239 241 243 245 247 249 251 252 253 254 255 256 257 258 259 261 261 262 262 264 264 263 264 265 265 265 265 265 265 265 265 266 266 266
206 211 213 217 220 223 226 227 228 229 230 232 234 236 238 239 241 243 246 248 250 252 253 254 255 256 257 258 259 260 261 262 263 264 264 265 266 266 265 265 266 266 265 265 266 266 266 266 266
207 212 216 219 223 226 229 230 231 231 233 234 236 236 238 241 242 244 247 249 251 253 254 255 255 256 257 259 259 260 261 263 264 265 265 265 266 267 267 266 266 266 266 267 267 267 266 266 266
210 213 218 221 225 228 230 233 234 234 235 236 237 238 239 241 244 247 250 252 254 256 256 257 257 258 259 260 261 262 263 264 265 265 265 266 266 267 266 266 266 266 267 268 268 268 267 267 266
211 215 220 224 227 230 232 234 237 238 237 237 237 239 241 243 246 249 252 255 257 258 259 260 260 260 261 262 263 264 265 265 266 266 267 266 267 266 267 267 267 267 267 268 269 268 268 268 267
213 218 221 225 228 231 234 236 238 239 239 238 238 240 242 245 248 251 254 257 259 260 260 261 262 263 264 265 265 266 267 267 267 267 266 266 266 266 267 267 267 268 268 268 268 269 269 268 268
215 220 223 226 229 230 234 236 237 238 239 240 240 241 243 246 249 252 255 258 259 261 261 262 263 264 265 266 267 268 268 268 268 267 267 267 267 267 266 267 267 267 267 267 267 268 269 269 269
221 224 226 229 232 234 236 236 237 239 242 244 245 246 246 249 252 254 256 258 260 261 262 263 265 266 266 267 268 268 269 270 269 268 268 267 267 267 267 267 267 268 267 268 268 268 268 269 269
224 228 230 231 235 237 238 239 239 243 245 248 249 250 251 252 253 255 257 259 260 262 263 265 267 268 269 269 270 270 271 271 271 271 270 269 268 268 267 267 268 268 269 268 269 269 269 268 267
227 231 231 233 238 239 241 244 244 246 247 249 250 251 252 253 254 256 258 260 261 263 263 265 268 269 270 271 273 273 272 272 271 271 271 270 270 269 269 269 270 270 270 270 271 271 270 269 268
227 232 234 237 240 242 242 246 245 249 250 250 251 252 253 254 257 259 260 262 263 265 264 265 267 268 269 271 274 275 274 273 272 272 271 271 271 271 272 272 272 273 272 272 272 271 271 270 269
241 244 246 245 242 245 247 251 254 253 254 254 254 254 255 257 259 261 262 263 265 265 266 266 268 269 270 271 274 276 275 275 274 274 272 271 272 272 273 273 274 274 274 273 272 271 271 271 271
256 258 259 257 255 252 252 259 263 262 260 258 257 258 259 260 260 261 263 265 266 267 266 268 270 271 271 272 274 276 276 276 275 275 274 273 273 273 272 273 274 274 275 274 272 272 272 272 272
278 276 273 271 266 265 264 265 267 268 265 262 261 261 260 260 261 262 264 266 268 269 269 270 272 272 273 274 275 276 276 275 275 276 275 275 275 275 275 275 275 275 275 275 273 272 272 271 272
287 286 285 283 281 276 270 272 273 273 271 266 264 262 260 260 261 263 265 267 270 271 271 272 273 274 274 275 276 277 277 277 276 275 275 276 278 277 276 276 277 277 277 276 275 273 272 271 272
296 291 288 285 286 286 282 280 279 278 274 269 267 264 262 262 263 266 268 270 271 273 273 274 275 276 276 276 278 278 278 278 278 276 277 280 280 279 279 279 279 279 279 277 276 275 274 274 274
301 298 294 291 289 289 289 289 284 282 277 272 270 268 267 268 271 272 274 275 276 276 276 276 277 277 277 278 278 279 278 277 277 277 277 279 281 281 281 281 280 280 279 278 278 276 276 275 274
Height
5791 5796 5801 5805 5809 5813 5818 5824 5829 5834 5837 5841 5844 5847 5850 5853 5856 5860 5861 5862 5863 5865 5866 5868 5869 5870 5871 5872 5872 5873 5874 5874 5875 5875 5875 5876 5876 5876 5876 5876 5876 5876 5875 5875 5875 5875 5875 5874 5874
5782 5788 5793 5797 5802 5807 5814 5819 5824 5828 5833 5836 5840 5843 5846 5848 5851 5854 5856 5858 5860 5862 5863 5865 5866 5867 5868 5869 5870 5871 5871 5872 5872 5873 5873 5873 5874 5874 5874 5874 5874 5874 5874 5873 5873 5873 5873 5872 5872
5774 5780 5786 5791 5796 5803 5809 5813 5818 5823 5827 5831 5835 5838 5841 5845 5848 5850 5852 5855 5857 5858 5860 5861 5863 5864 5865 5866 5867 5868 5869 5869 5870 5870 5870 5871 5871 5871 5871 5872 5872 5871 5871 5871 5871 5871 5870 5870 5870
5766 5772 5778 5785 5791 5798 5802 5808 5812 5817 5822 5826 5830 5833 5837 5841 5844 5846 5848 5851 5853 5854 5856 5858 5859 5861 5862 5863 5864 5865 5865 5866 5866 5867 5867 5868 5868 5868 5869 5869 5869 5869 5869 5869 5868 5868 5868 5868 5867
5759 5765 5772 5778 5785 5791 5797 5802 5807 5812 5817 5821 5825 5829 5832 5836 5838 5841 5844 5846 5849 5850 5852 5854 5855 5857 5858 5859 5860 5861 5862 5863 5863 5863 5864 5864 5865 5865 5865 5866 5866 5866 5866 5866 5865 5865 5865 5865 5865
5753 5760 5767 5773 5780 5786 5791 5797 5802 5807 5812 5816 5820 5824 5827 5831 5834 5837 5839 5842 5844 5846 5848 5849 5851 5852 5854 5855 5856 5857 5858 5858 5859 5860 5860 5860 5861 5861 5862 5862 5862 5862 5862 5862 5862 5862 5862 5861 5861
5748 5755 5762 5769 5775 5781 5786 5791 5797 5801 5806 5811 5815 5819 5822 5825 5829 5832 5834 5837 5839 5841 5843 5845 5846 5847 5849 5850 5851 5852 5853 5854 5854 5855 5856 5856 5856 5857 5857 5857 5858 5858 5858 5858 5858 5858 5858 5857 5857
5742 5751 5756 5763 5769 5776 5782 5787 5791 5796 5801 5806 5810 5814 5817 5821 5824 5827 5829 5832 5834 5836 5838 5840 5841 5842 5844 5845 5846 5847 5848 5849 5849 5850 5850 5851 5851 5852 5852 5852 5853 5853 5853 5853 5853 5853 5853 5853 5853
5738 5746 5751 5758 5765 5771 5777 5782 5787 5791 5796 5801 5805 5809 5813 5815 5818 5821 5824 5827 5829 5831 5833 5835 5836 5837 5838 5839 5841 5841 5842 5843 5844 5844 5845 5845 5846 5846 5846 5847 5847 5848 5848 5848 5847 5847 5848 5848 5848
5733 5740 5748 5754 5760 5766 5772 5777 5782 5787 5791 5796 5800 5804 5807 5810 5813 5816 5819 5821 5824 5826 5827 5829 5830 5832 5833 5834 5835 5836 5836 5837 5838 5838 5839 5839 5839 5840 5840 5841 5841 5842 5842 5842 5842 5842 5841 5842 5842
5730 5737 5744 5750 5756 5762 5767 5772 5777 5782 5787 5791 5795 5799 5802 5805 5808 5810 5813 5815 5818 5820 5822 5823 5824 5826 5827 5828 5829 5829 5830 5831 5831 5832 5832 5833 5833 5833 5834 5834 5835 5835 5836 5836 5836 5835 5835 5835 5836
5728 5734 5740 5746 5752 5757 5762 5767 5772 5777 5782 5786 5790 5793 5797 5799 5802 5805 5807 5809 5812 5814 5815 5817 5818 5819 5821 5822 5823 5823 5824 5824 5825 5825 5826 5826 5826 5826 5827 5827 5828 5828 5829 5829 5829 5829 5829 5829 5829
5725 5731 5737 5742 5748 5753 5758 5762 5767 5772 5776 5780 5784 5788 5791 5794 5796 5799 5801 5803 5805 5807 5809 5810 5812 5813 5814 5815 5816 5816 5817 5817 5818 5818 5818 5819 5819 5820 5820 5820 5820 5821 5821 5822 5822 5822 5822 5822 5822
5724 5729 5734 5739 5744 5749 5754 5758 5763 5767 5771 5775 5779 5783 5786 5788 5791 5793 5795 5797 5799 5801 5802 5803 5805 5806 5807 5808 5809 5809 5810 5810 5811 5811 5811 5811 5811 5812 5813 5812 5813 5813 5813 5813 5814 5814 5814 5814 5814
5722 5727 5732 5737 5741 5746 5751 5755 5759 5762 5767 5770 5774 5777 5780 5782 5785 5787 5789 5791 5793 5794 5795 5796 5797 5798 5800 5801 5801 5802 5802 5803 5803 5803 5803 5803 5803 5804 5804 5805 5804 5805 5804 5805 5805 5806 5806 5805 5806
5721 5726 5731 5735 5739 5743 5749 5752 5755 5758 5762 5765 5768 5771 5774 5776 5779 5781 5783 5784 5786 5787 5789 5790 5790 5791 5792 5793 5794 5794 5794 5795 5795 5795 5795 5795 5795 5795 5795 5796 5796 5796 5796 5796 5796 5797 5797 5797 5797
5721 5725 5729 5733 5737 5740 5744 5747 5750 5753 5757 5760 5763 5766 5768 5771 5773 5775 5777 5778 5780 5781 5782 5783 5783 5784 5785 5785 5786 5786 5786 5786 5786 5786 5786 5786 5786 5786 5786 5786 5787 5787 5787 5787 5787 5787 5787 5787 5787
5721 5724 5728 5731 5734 5737 5741 5744 5746 5749 5752 5755 5757 5760 5763 5765 5767 5769 5770 5772 5773 5774 5775 5775 5776 5776 5777 5777 5777 5778 5778 5777 5777 5777 5777 5777 5777 5777 5776 5777 5777 5777 5777 5777 5777 5776 5776 5776 5776
5720 5723 5726 5729 5732 5735 5737 5740 5743 5745 5748 5750 5753 5755 5757 5760 5761 5763 5764 5765 5766 5767 5767 5768 5768 5768 5769 5769 5769 5769 5768 5768 5767 5767 5767 5767 5767 5766 5766 5766 5766 5766 5766 5766 5766 5765 5765 5765 5765
5719 5722 5724 5727 5729 5732 5734 5737 5739 5741 5743 5746 5748 5750 5752 5754 5755 5757 5758 5758 5759 5760 5760 5760 5760 5760 5760 5760 5760 5759 5759 5758 5757 5757 5756 5756 5756 5756 5756 5756 5756 5755 5755 5755 5754 5754 5754 5753 5753
5719 5721 5723 5725 5727 5729 5731 5734 5736 5737 5739 5741 5743 5745 5747 5748 5749 5750 5751 5752 5752 5752 5753 5753 5753 5752 5752 5752 5751 5750 5749 5749 5748 5747 5746 5746 5745 5745 5745 5745 5745 5744 5744 5743 5743 5742 5741 5741 5740
5718 5720 5721 5723 5725 5727 5729 5730 5733 5733 5735 5736 5738 5740 5741 5742 5743 5744 5744 5745 5745 5745 5745 5745 5745 5745 5744 5743 5743 5742 5741 5740 5738 5737 5736 5736 5735 5735 5735 5734 5734 5733 5732 5732 5731 5730 5729 5728 5728
5718 5719 5720 5722 5723 5725 5725 5727 5729 5729 5730 5732 5733 5734 5735 5736 5736 5737 5737 5738 5738 5738 5738 5737 5737 5737 5736 5735 5735 5733 5732 5731 5729 5728 5727 5726 5725 5725 5725 5724 5724 5723 5722 5721 5720 5719 5718 5717 5717
5717 5718 5719 5720 5721 5722 5723 5723 5725 5725 5726 5727 5728 5728 5729 5730 5730 5731 5731 5731 5731 5731 5730 5730 5730 5729 5728 5728 5726 5725 5723 5722 5720 5719 5718 5717 5717 5716 5715 5714 5714 5713 5712 5711 5710 5709 5708 5707 5706
5717 5718 5719 5718 5719 5720 5720 5720 5721 5721 5721 5721 5722 5723 5723 5724 5724 5724 5724 5724 5724 5724 5723 5723 5722 5721 5721 5720 5718 5717 5715 5713 5712 5711 5709 5708 5707 5706 5705 5705 5704 5703 5702 5701 5700 5699 5699 5698 5697
5716 5716 5717 5717 5716 5717 5717 5716 5718 5716 5716 5716 5716 5717 5717 5717 5718 5718 5718 5717 5717 5717 5716 5716 5715 5714 5713 5712 5710 5709 5707 5705 5704 5702 5701 5700 5698 5697 5696 5695 5695 5694 5693 5692 5691 5690 5689 5688 5688
5714 5714 5714 5714 5713 5714 5713 5713 5713 5712 5711 5711 5711 5711 5711 5711 5711 5711 5711 5711 5710 5710 5709 5708 5708 5707 5705 5704 5703 5701 5699 5697 5696 5694 5693 5691 5690 5689 5688 5687 5686 5685 5684 5682 5681 5680 5680 5679 5678
5713 5712 5712 5711 5710 5710 5710 5710 5709 5707 5706 5706 5705 5705 5705 5705 5705 5705 5704 5704 5703 5703 5702 5701 5700 5699 5697 5696 5695 5693 5692 5690 5688 5686 5685 5683 5682 5680 5679 5678 5677 5676 5674 5673 5672 5671 5670 5669 5668
5711 5711 5709 5708 5708 5707 5706 5709 5705 5703 5702 5701 5700 5699 5699 5699 5699 5699 5698 5698 5697 5696 5695 5693 5692 5691 5690 5688 5687 5685 5684 5682 5680 5679 5677 5676 5674 5672 5671 5669 5668 5666 5665 5663 5662 5661 5660 5659 5658
5709 5708 5707 5706 5705 5703 5703 5706 5701 5699 5697 5696 5695 5695 5694 5694 5694 5693 5692 5691 5690 5689 5687 5686 5685 5683 5682 5680 5678 5677 5675 5674 5672 5671 5670 5668 5666 5664 5663 5661 5660 5658 5656 5655 5653 5652 5650 5649 5649